Year,Month,Day,Hour,Minute,Value (Times are PST for temperature in C)
2012,07,10,00,00,17.30
2012,07,10,00,01,17.30
2012,07,10,00,02,17.30
2012,07,10,00,03,17.30
2012,07,10,00,04,17.20
2012,07,10,00,05,17.20
2012,07,10,00,06,17.20
2012,07,10,00,07,17.20
2012,07,10,00,08,17.20
2012,07,10,00,09,17.10
2012,07,10,00,10,17.10
2012,07,10,00,11,17.10
2012,07,10,00,12,17.10
2012,07,10,00,13,17.10
2012,07,10,00,14,17.10
2012,07,10,00,15,17.10
2012,07,10,00,16,17.10
2012,07,10,00,17,17.10
2012,07,10,00,18,17.10
2012,07,10,00,19,17.10
2012,07,10,00,20,17.10
2012,07,10,00,21,17.10
2012,07,10,00,22,17.00
2012,07,10,00,23,17.00
2012,07,10,00,24,17.00
2012,07,10,00,25,17.00
2012,07,10,00,26,17.00
2012,07,10,00,27,17.00
2012,07,10,00,28,17.00
2012,07,10,00,29,17.00
2012,07,10,00,30,17.00
2012,07,10,00,31,16.90
2012,07,10,00,32,16.90
2012,07,10,00,33,16.90
2012,07,10,00,34,16.90
2012,07,10,00,35,16.90
2012,07,10,00,36,16.80
2012,07,10,00,37,16.80
2012,07,10,00,38,16.80
2012,07,10,00,39,16.80
2012,07,10,00,40,16.70
2012,07,10,00,41,16.70
2012,07,10,00,42,16.70
2012,07,10,00,43,16.70
2012,07,10,00,44,16.70
2012,07,10,00,45,16.70
2012,07,10,00,46,16.60
2012,07,10,00,47,16.60
2012,07,10,00,48,16.60
2012,07,10,00,49,16.60
2012,07,10,00,50,16.60
2012,07,10,00,51,16.50
2012,07,10,00,52,16.50
2012,07,10,00,53,16.50
2012,07,10,00,54,16.50
2012,07,10,00,55,16.40
2012,07,10,00,56,16.40
2012,07,10,00,57,16.30
2012,07,10,00,58,16.30
2012,07,10,00,59,16.30
2012,07,10,01,00,16.20
2012,07,10,01,01,16.20
2012,07,10,01,02,16.20
2012,07,10,01,03,16.20
2012,07,10,01,04,16.10
2012,07,10,01,05,16.10
2012,07,10,01,06,16.10
2012,07,10,01,07,16.00
2012,07,10,01,08,16.00
2012,07,10,01,09,15.90
2012,07,10,01,10,15.90
2012,07,10,01,11,15.90
2012,07,10,01,12,15.90
2012,07,10,01,13,15.90
2012,07,10,01,14,15.80
2012,07,10,01,15,15.80
2012,07,10,01,16,15.80
2012,07,10,01,17,15.80
2012,07,10,01,18,15.80
2012,07,10,01,19,15.80
2012,07,10,01,20,15.80
2012,07,10,01,21,15.80
2012,07,10,01,22,15.80
2012,07,10,01,23,15.80
2012,07,10,01,24,15.80
2012,07,10,01,25,15.80
2012,07,10,01,26,15.70
2012,07,10,01,27,15.80
2012,07,10,01,28,15.80
2012,07,10,01,29,15.80
2012,07,10,01,30,15.80
2012,07,10,01,31,15.80
2012,07,10,01,32,15.80
2012,07,10,01,33,15.80
2012,07,10,01,34,15.80
2012,07,10,01,35,15.80
2012,07,10,01,36,15.80
2012,07,10,01,37,15.70
2012,07,10,01,38,15.70
2012,07,10,01,39,15.70
2012,07,10,01,40,15.70
2012,07,10,01,41,15.70
2012,07,10,01,42,15.70
2012,07,10,01,43,15.70
2012,07,10,01,44,15.70
2012,07,10,01,45,15.70
2012,07,10,01,46,15.70
2012,07,10,01,47,15.70
2012,07,10,01,48,15.70
2012,07,10,01,49,15.70
2012,07,10,01,50,15.70
2012,07,10,01,51,15.70
2012,07,10,01,52,15.60
2012,07,10,01,53,15.60
2012,07,10,01,54,15.60
2012,07,10,01,55,15.60
2012,07,10,01,56,15.60
2012,07,10,01,57,15.50
2012,07,10,01,58,15.50
2012,07,10,01,59,15.40
2012,07,10,02,00,15.40
2012,07,10,02,01,15.30
2012,07,10,02,02,15.30
2012,07,10,02,03,15.30
2012,07,10,02,04,15.20
2012,07,10,02,05,15.20
2012,07,10,02,06,15.20
2012,07,10,02,07,15.10
2012,07,10,02,08,15.10
2012,07,10,02,09,15.10
2012,07,10,02,10,15.00
2012,07,10,02,11,15.00
2012,07,10,02,12,14.90
2012,07,10,02,13,14.90
2012,07,10,02,14,14.90
2012,07,10,02,15,14.90
2012,07,10,02,16,14.80
2012,07,10,02,17,14.80
2012,07,10,02,18,14.80
2012,07,10,02,19,14.80
2012,07,10,02,20,14.80
2012,07,10,02,21,14.80
2012,07,10,02,22,14.80
2012,07,10,02,23,14.80
2012,07,10,02,24,14.80
2012,07,10,02,25,14.80
2012,07,10,02,26,14.80
2012,07,10,02,27,14.80
2012,07,10,02,28,14.80
2012,07,10,02,29,14.80
2012,07,10,02,30,14.80
2012,07,10,02,31,14.70
2012,07,10,02,32,14.70
2012,07,10,02,33,14.70
2012,07,10,02,34,14.70
2012,07,10,02,35,14.70
2012,07,10,02,36,14.70
2012,07,10,02,37,14.70
2012,07,10,02,38,14.70
2012,07,10,02,39,14.70
2012,07,10,02,40,14.70
2012,07,10,02,41,14.70
2012,07,10,02,42,14.60
2012,07,10,02,43,14.60
2012,07,10,02,44,14.60
2012,07,10,02,45,14.60
2012,07,10,02,46,14.60
2012,07,10,02,47,14.60
2012,07,10,02,48,14.60
2012,07,10,02,49,14.60
2012,07,10,02,50,14.60
2012,07,10,02,51,14.60
2012,07,10,02,52,14.60
2012,07,10,02,53,14.60
2012,07,10,02,54,14.60
2012,07,10,02,55,14.50
2012,07,10,02,56,14.50
2012,07,10,02,57,14.50
2012,07,10,02,58,14.40
2012,07,10,02,59,14.40
2012,07,10,03,00,14.40
2012,07,10,03,01,14.30
2012,07,10,03,02,14.30
2012,07,10,03,03,14.30
2012,07,10,03,04,14.30
2012,07,10,03,05,14.20
2012,07,10,03,06,14.20
2012,07,10,03,07,14.20
2012,07,10,03,08,14.10
2012,07,10,03,09,14.10
2012,07,10,03,10,14.10
2012,07,10,03,11,14.10
2012,07,10,03,12,14.10
2012,07,10,03,13,14.00
2012,07,10,03,14,14.00
2012,07,10,03,15,14.00
2012,07,10,03,16,14.00
2012,07,10,03,17,13.90
2012,07,10,03,18,13.90
2012,07,10,03,19,13.90
2012,07,10,03,20,13.90
2012,07,10,03,21,13.90
2012,07,10,03,22,13.90
2012,07,10,03,23,13.90
2012,07,10,03,24,13.90
2012,07,10,03,25,13.90
2012,07,10,03,26,13.90
2012,07,10,03,27,13.90
2012,07,10,03,28,13.90
2012,07,10,03,29,13.90
2012,07,10,03,30,13.90
2012,07,10,03,31,13.90
2012,07,10,03,32,13.80
2012,07,10,03,33,13.80
2012,07,10,03,34,13.80
2012,07,10,03,35,13.80
2012,07,10,03,36,13.80
2012,07,10,03,37,13.80
2012,07,10,03,38,13.80
2012,07,10,03,39,13.70
2012,07,10,03,40,13.70
2012,07,10,03,41,13.70
2012,07,10,03,42,13.70
2012,07,10,03,43,13.70
2012,07,10,03,44,13.70
2012,07,10,03,45,13.70
2012,07,10,03,46,13.70
2012,07,10,03,47,13.70
2012,07,10,03,48,13.70
2012,07,10,03,49,13.70
2012,07,10,03,50,13.60
2012,07,10,03,51,13.60
2012,07,10,03,52,13.60
2012,07,10,03,53,13.60
2012,07,10,03,54,13.60
2012,07,10,03,55,13.60
2012,07,10,03,56,13.60
2012,07,10,03,57,13.50
2012,07,10,03,58,13.50
2012,07,10,03,59,13.50
2012,07,10,04,00,13.60
2012,07,10,04,01,13.60
2012,07,10,04,02,13.60
2012,07,10,04,03,13.60
2012,07,10,04,04,13.70
2012,07,10,04,05,13.70
2012,07,10,04,06,13.70
2012,07,10,04,07,13.60
2012,07,10,04,08,13.60
2012,07,10,04,09,13.60
2012,07,10,04,10,13.60
2012,07,10,04,11,13.60
2012,07,10,04,12,13.60
2012,07,10,04,13,13.60
2012,07,10,04,14,13.60
2012,07,10,04,15,13.60
2012,07,10,04,16,13.50
2012,07,10,04,17,13.50
2012,07,10,04,18,13.50
2012,07,10,04,19,13.50
2012,07,10,04,20,13.50
2012,07,10,04,21,13.40
2012,07,10,04,22,13.40
2012,07,10,04,23,13.40
2012,07,10,04,24,13.40
2012,07,10,04,25,13.40
2012,07,10,04,26,13.40
2012,07,10,04,27,13.40
2012,07,10,04,28,13.40
2012,07,10,04,29,13.30
2012,07,10,04,30,13.30
2012,07,10,04,31,13.30
2012,07,10,04,32,13.30
2012,07,10,04,33,13.40
2012,07,10,04,34,13.40
2012,07,10,04,35,13.40
2012,07,10,04,36,13.30
2012,07,10,04,37,13.30
2012,07,10,04,38,13.30
2012,07,10,04,39,13.30
2012,07,10,04,40,13.30
2012,07,10,04,41,13.30
2012,07,10,04,42,13.30
2012,07,10,04,43,13.30
2012,07,10,04,44,13.30
2012,07,10,04,45,13.30
2012,07,10,04,46,13.30
2012,07,10,04,47,13.30
2012,07,10,04,48,13.30
2012,07,10,04,49,13.30
2012,07,10,04,50,13.30
2012,07,10,04,51,13.30
2012,07,10,04,52,13.30
2012,07,10,04,53,13.30
2012,07,10,04,54,13.20
2012,07,10,04,55,13.20
2012,07,10,04,56,13.20
2012,07,10,04,57,13.20
2012,07,10,04,58,13.20
2012,07,10,04,59,13.20
2012,07,10,05,00,13.20
2012,07,10,05,01,13.20
2012,07,10,05,02,13.20
2012,07,10,05,03,13.20
2012,07,10,05,04,13.20
2012,07,10,05,05,13.10
2012,07,10,05,06,13.10
2012,07,10,05,07,13.10
2012,07,10,05,08,13.10
2012,07,10,05,09,13.10
2012,07,10,05,10,13.00
2012,07,10,05,11,13.00
2012,07,10,05,12,13.00
2012,07,10,05,13,13.00
2012,07,10,05,14,13.00
2012,07,10,05,15,13.00
2012,07,10,05,16,13.00
2012,07,10,05,17,13.00
2012,07,10,05,18,12.90
2012,07,10,05,19,12.90
2012,07,10,05,20,12.90
2012,07,10,05,21,12.90
2012,07,10,05,22,12.90
2012,07,10,05,23,12.90
2012,07,10,05,24,12.90
2012,07,10,05,25,12.90
2012,07,10,05,26,12.90
2012,07,10,05,27,12.90
2012,07,10,05,28,12.90
2012,07,10,05,29,12.90
2012,07,10,05,30,12.90
2012,07,10,05,31,12.90
2012,07,10,05,32,12.90
2012,07,10,05,33,12.90
2012,07,10,05,34,12.90
2012,07,10,05,35,12.90
2012,07,10,05,36,13.00
2012,07,10,05,37,13.00
2012,07,10,05,38,13.00
2012,07,10,05,39,13.10
2012,07,10,05,40,13.10
2012,07,10,05,41,13.10
2012,07,10,05,42,13.10
2012,07,10,05,43,13.10
2012,07,10,05,44,13.10
2012,07,10,05,45,13.10
2012,07,10,05,46,13.10
2012,07,10,05,47,13.20
2012,07,10,05,48,13.20
2012,07,10,05,49,13.20
2012,07,10,05,50,13.20
2012,07,10,05,51,13.30
2012,07,10,05,52,13.30
2012,07,10,05,53,13.30
2012,07,10,05,54,13.30
2012,07,10,05,55,13.30
2012,07,10,05,56,13.30
2012,07,10,05,57,13.40
2012,07,10,05,58,13.40
2012,07,10,05,59,13.40
2012,07,10,06,00,13.40
2012,07,10,06,01,13.40
2012,07,10,06,02,13.40
2012,07,10,06,03,13.40
2012,07,10,06,04,13.50
2012,07,10,06,05,13.50
2012,07,10,06,06,13.50
2012,07,10,06,07,13.50
2012,07,10,06,08,13.60
2012,07,10,06,09,13.60
2012,07,10,06,10,13.60
2012,07,10,06,11,13.60
2012,07,10,06,12,13.60
2012,07,10,06,13,13.60
2012,07,10,06,14,13.60
2012,07,10,06,15,13.60
2012,07,10,06,16,13.60
2012,07,10,06,17,13.70
2012,07,10,06,18,13.70
2012,07,10,06,19,13.70
2012,07,10,06,20,13.70
2012,07,10,06,21,13.70
2012,07,10,06,22,13.70
2012,07,10,06,23,13.70
2012,07,10,06,24,13.70
2012,07,10,06,25,13.80
2012,07,10,06,26,13.80
2012,07,10,06,27,13.80
2012,07,10,06,28,13.80
2012,07,10,06,29,13.90
2012,07,10,06,30,13.90
2012,07,10,06,31,14.00
2012,07,10,06,32,14.00
2012,07,10,06,33,14.10
2012,07,10,06,34,14.10
2012,07,10,06,35,14.20
2012,07,10,06,36,14.20
2012,07,10,06,37,14.20
2012,07,10,06,38,14.20
2012,07,10,06,39,14.20
2012,07,10,06,40,14.20
2012,07,10,06,41,14.20
2012,07,10,06,42,14.20
2012,07,10,06,43,14.30
2012,07,10,06,44,14.30
2012,07,10,06,45,14.30
2012,07,10,06,46,14.30
2012,07,10,06,47,14.30
2012,07,10,06,48,14.30
2012,07,10,06,49,14.30
2012,07,10,06,50,14.30
2012,07,10,06,51,14.30
2012,07,10,06,52,14.40
2012,07,10,06,53,14.40
2012,07,10,06,54,14.40
2012,07,10,06,55,14.50
2012,07,10,06,56,14.50
2012,07,10,06,57,14.60
2012,07,10,06,58,14.60
2012,07,10,06,59,14.70
2012,07,10,07,00,14.70
2012,07,10,07,01,14.70
2012,07,10,07,02,14.70
2012,07,10,07,03,14.80
2012,07,10,07,04,14.80
2012,07,10,07,05,14.80
2012,07,10,07,06,14.90
2012,07,10,07,07,14.90
2012,07,10,07,08,15.00
2012,07,10,07,09,15.10
2012,07,10,07,10,15.10
2012,07,10,07,11,15.20
2012,07,10,07,12,15.20
2012,07,10,07,13,15.30
2012,07,10,07,14,15.30
2012,07,10,07,15,15.30
2012,07,10,07,16,15.30
2012,07,10,07,17,15.30
2012,07,10,07,18,15.40
2012,07,10,07,19,15.40
2012,07,10,07,20,15.40
2012,07,10,07,21,15.50
2012,07,10,07,22,15.60
2012,07,10,07,23,15.60
2012,07,10,07,24,15.70
2012,07,10,07,25,15.80
2012,07,10,07,26,15.80
2012,07,10,07,27,15.80
2012,07,10,07,28,15.90
2012,07,10,07,29,15.90
2012,07,10,07,30,15.90
2012,07,10,07,31,16.00
2012,07,10,07,32,16.10
2012,07,10,07,33,16.10
2012,07,10,07,34,16.20
2012,07,10,07,35,16.30
2012,07,10,07,36,16.30
2012,07,10,07,37,16.40
2012,07,10,07,38,16.50
2012,07,10,07,39,16.60
2012,07,10,07,40,16.60
2012,07,10,07,41,16.70
2012,07,10,07,42,16.80
2012,07,10,07,43,16.80
2012,07,10,07,44,16.80
2012,07,10,07,45,16.90
2012,07,10,07,46,16.90
2012,07,10,07,47,16.90
2012,07,10,07,48,16.90
2012,07,10,07,49,16.90
2012,07,10,07,50,16.80
2012,07,10,07,51,16.80
2012,07,10,07,52,16.80
2012,07,10,07,53,16.80
2012,07,10,07,54,16.80
2012,07,10,07,55,16.80
2012,07,10,07,56,16.80
2012,07,10,07,57,16.80
2012,07,10,07,58,16.80
2012,07,10,07,59,16.70
2012,07,10,08,00,16.70
2012,07,10,08,01,16.70
2012,07,10,08,02,16.80
2012,07,10,08,03,16.80
2012,07,10,08,04,16.80
2012,07,10,08,05,16.80
2012,07,10,08,06,16.80
2012,07,10,08,07,16.80
2012,07,10,08,08,16.80
2012,07,10,08,09,16.90
2012,07,10,08,10,17.00
2012,07,10,08,11,17.00
2012,07,10,08,12,17.10
2012,07,10,08,13,17.20
2012,07,10,08,14,17.30
2012,07,10,08,15,17.50
2012,07,10,08,16,17.60
2012,07,10,08,17,17.70
2012,07,10,08,18,17.80
2012,07,10,08,19,17.90
2012,07,10,08,20,18.00
2012,07,10,08,21,18.10
2012,07,10,08,22,18.10
2012,07,10,08,23,18.20
2012,07,10,08,24,18.10
2012,07,10,08,25,18.10
2012,07,10,08,26,18.00
2012,07,10,08,27,18.00
2012,07,10,08,28,17.90
2012,07,10,08,29,17.90
2012,07,10,08,30,17.90
2012,07,10,08,31,17.90
2012,07,10,08,32,17.80
2012,07,10,08,33,17.80
2012,07,10,08,34,17.80
2012,07,10,08,35,17.80
2012,07,10,08,36,17.80
2012,07,10,08,37,17.70
2012,07,10,08,38,17.80
2012,07,10,08,39,17.80
2012,07,10,08,40,17.70
2012,07,10,08,41,17.70
2012,07,10,08,42,17.80
2012,07,10,08,43,17.80
2012,07,10,08,44,17.80
2012,07,10,08,45,17.80
2012,07,10,08,46,17.80
2012,07,10,08,47,17.80
2012,07,10,08,48,17.70
2012,07,10,08,49,17.80
2012,07,10,08,50,17.80
2012,07,10,08,51,17.90
2012,07,10,08,52,17.90
2012,07,10,08,53,17.90
2012,07,10,08,54,17.90
2012,07,10,08,55,17.90
2012,07,10,08,56,17.80
2012,07,10,08,57,17.80
2012,07,10,08,58,17.80
2012,07,10,08,59,17.80
2012,07,10,09,00,17.80
2012,07,10,09,01,17.80
2012,07,10,09,02,17.80
2012,07,10,09,03,17.80
2012,07,10,09,04,17.80
2012,07,10,09,05,17.90
2012,07,10,09,06,17.90
2012,07,10,09,07,17.90
2012,07,10,09,08,17.90
2012,07,10,09,09,17.90
2012,07,10,09,10,17.80
2012,07,10,09,11,17.80
2012,07,10,09,12,17.80
2012,07,10,09,13,17.80
2012,07,10,09,14,17.80
2012,07,10,09,15,17.80
2012,07,10,09,16,17.80
2012,07,10,09,17,17.80
2012,07,10,09,18,17.90
2012,07,10,09,19,17.90
2012,07,10,09,20,17.90
2012,07,10,09,21,17.90
2012,07,10,09,22,17.90
2012,07,10,09,23,17.90
2012,07,10,09,24,17.90
2012,07,10,09,25,18.00
2012,07,10,09,26,18.00
2012,07,10,09,27,18.10
2012,07,10,09,28,18.10
2012,07,10,09,29,18.10
2012,07,10,09,30,18.10
2012,07,10,09,31,18.10
2012,07,10,09,32,18.10
2012,07,10,09,33,18.10
2012,07,10,09,34,18.20
2012,07,10,09,35,18.20
2012,07,10,09,36,18.30
2012,07,10,09,37,18.40
2012,07,10,09,38,18.40
2012,07,10,09,39,18.40
2012,07,10,09,40,18.40
2012,07,10,09,41,18.40
2012,07,10,09,42,18.40
2012,07,10,09,43,18.40
2012,07,10,09,44,18.40
2012,07,10,09,45,18.40
2012,07,10,09,46,18.40
2012,07,10,09,47,18.40
2012,07,10,09,48,18.30
2012,07,10,09,49,18.30
2012,07,10,09,50,18.30
2012,07,10,09,51,18.30
2012,07,10,09,52,18.30
2012,07,10,09,53,18.30
2012,07,10,09,54,18.30
2012,07,10,09,55,18.30
2012,07,10,09,56,18.40
2012,07,10,09,57,18.40
2012,07,10,09,58,18.40
2012,07,10,09,59,18.40
2012,07,10,10,00,18.30
2012,07,10,10,01,18.30
2012,07,10,10,02,18.40
2012,07,10,10,03,18.50
2012,07,10,10,04,18.60
2012,07,10,10,05,18.60
2012,07,10,10,06,18.60
2012,07,10,10,07,18.60
2012,07,10,10,08,18.60
2012,07,10,10,09,18.60
2012,07,10,10,10,18.60
2012,07,10,10,11,18.70
2012,07,10,10,12,18.70
2012,07,10,10,13,18.70
2012,07,10,10,14,18.70
2012,07,10,10,15,18.70
2012,07,10,10,16,18.80
2012,07,10,10,17,18.90
2012,07,10,10,18,19.00
2012,07,10,10,19,19.00
2012,07,10,10,20,19.10
2012,07,10,10,21,19.10
2012,07,10,10,22,19.20
2012,07,10,10,23,19.20
2012,07,10,10,24,19.20
2012,07,10,10,25,19.20
2012,07,10,10,26,19.20
2012,07,10,10,27,19.20
2012,07,10,10,28,19.20
2012,07,10,10,29,19.20
2012,07,10,10,30,19.10
2012,07,10,10,31,19.10
2012,07,10,10,32,19.00
2012,07,10,10,33,19.00
2012,07,10,10,34,19.00
2012,07,10,10,35,19.00
2012,07,10,10,36,19.10
2012,07,10,10,37,19.10
2012,07,10,10,38,19.10
2012,07,10,10,39,19.20
2012,07,10,10,40,19.30
2012,07,10,10,41,19.30
2012,07,10,10,42,19.40
2012,07,10,10,43,19.40
2012,07,10,10,44,19.40
2012,07,10,10,45,19.40
2012,07,10,10,46,19.40
2012,07,10,10,47,19.40
2012,07,10,10,48,19.40
2012,07,10,10,49,19.50
2012,07,10,10,50,19.60
2012,07,10,10,51,19.60
2012,07,10,10,52,19.70
2012,07,10,10,53,19.70
2012,07,10,10,54,19.70
2012,07,10,10,55,19.80
2012,07,10,10,56,19.90
2012,07,10,10,57,19.90
2012,07,10,10,58,19.80
2012,07,10,10,59,19.70
2012,07,10,11,00,19.70
2012,07,10,11,01,19.70
2012,07,10,11,02,19.70
2012,07,10,11,03,19.70
2012,07,10,11,04,19.80
2012,07,10,11,05,19.90
2012,07,10,11,06,20.00
2012,07,10,11,07,20.20
2012,07,10,11,08,20.40
2012,07,10,11,09,20.50
2012,07,10,11,10,20.50
2012,07,10,11,11,20.40
2012,07,10,11,12,20.30
2012,07,10,11,13,20.30
2012,07,10,11,14,20.30
2012,07,10,11,15,20.30
2012,07,10,11,16,20.30
2012,07,10,11,17,20.30
2012,07,10,11,18,20.30
2012,07,10,11,19,20.30
2012,07,10,11,20,20.30
2012,07,10,11,21,20.30
2012,07,10,11,22,20.20
2012,07,10,11,23,20.20
2012,07,10,11,24,20.20
2012,07,10,11,25,20.30
2012,07,10,11,26,20.40
2012,07,10,11,27,20.50
2012,07,10,11,28,20.60
2012,07,10,11,29,20.70
2012,07,10,11,30,20.80
2012,07,10,11,31,20.90
2012,07,10,11,32,20.90
2012,07,10,11,33,20.90
2012,07,10,11,34,20.90
2012,07,10,11,35,21.00
2012,07,10,11,36,21.20
2012,07,10,11,37,21.20
2012,07,10,11,38,21.20
2012,07,10,11,39,21.20
2012,07,10,11,40,21.20
2012,07,10,11,41,21.20
2012,07,10,11,42,21.30
2012,07,10,11,43,21.20
2012,07,10,11,44,21.20
2012,07,10,11,45,21.10
2012,07,10,11,46,21.10
2012,07,10,11,47,21.20
2012,07,10,11,48,21.20
2012,07,10,11,49,21.20
2012,07,10,11,50,21.20
2012,07,10,11,51,21.30
2012,07,10,11,52,21.30
2012,07,10,11,53,21.30
2012,07,10,11,54,21.30
2012,07,10,11,55,21.30
2012,07,10,11,56,21.30
2012,07,10,11,57,21.30
2012,07,10,11,58,21.40
2012,07,10,11,59,21.50
2012,07,10,12,00,21.70
2012,07,10,12,01,21.80
2012,07,10,12,02,21.80
2012,07,10,12,03,21.70
2012,07,10,12,04,21.70
2012,07,10,12,05,21.60
2012,07,10,12,06,21.50
2012,07,10,12,07,21.50
2012,07,10,12,08,21.50
2012,07,10,12,09,21.40
2012,07,10,12,10,21.50
2012,07,10,12,11,21.60
2012,07,10,12,12,21.80
2012,07,10,12,13,21.90
2012,07,10,12,14,22.10
2012,07,10,12,15,22.20
2012,07,10,12,16,22.30
2012,07,10,12,17,22.40
2012,07,10,12,18,22.50
2012,07,10,12,19,22.60
2012,07,10,12,20,22.60
2012,07,10,12,21,22.60
2012,07,10,12,22,22.60
2012,07,10,12,23,22.60
2012,07,10,12,24,22.50
2012,07,10,12,25,22.50
2012,07,10,12,26,22.60
2012,07,10,12,27,22.70
2012,07,10,12,28,22.80
2012,07,10,12,29,22.80
2012,07,10,12,30,22.90
2012,07,10,12,31,22.90
2012,07,10,12,32,22.90
2012,07,10,12,33,23.00
2012,07,10,12,34,23.00
2012,07,10,12,35,22.90
2012,07,10,12,36,22.90
2012,07,10,12,37,22.90
2012,07,10,12,38,22.80
2012,07,10,12,39,22.70
2012,07,10,12,40,22.70
2012,07,10,12,41,22.70
2012,07,10,12,42,22.70
2012,07,10,12,43,22.70
2012,07,10,12,44,22.70
2012,07,10,12,45,22.60
2012,07,10,12,46,22.50
2012,07,10,12,47,22.40
2012,07,10,12,48,22.40
2012,07,10,12,49,22.50
2012,07,10,12,50,22.60
2012,07,10,12,51,22.70
2012,07,10,12,52,22.70
2012,07,10,12,53,22.60
2012,07,10,12,54,22.50
2012,07,10,12,55,22.50
2012,07,10,12,56,22.50
2012,07,10,12,57,22.50
2012,07,10,12,58,22.60
2012,07,10,12,59,22.70
2012,07,10,13,00,22.80
2012,07,10,13,01,22.80
2012,07,10,13,02,22.80
2012,07,10,13,03,22.80
2012,07,10,13,04,22.80
2012,07,10,13,05,22.80
2012,07,10,13,06,22.80
2012,07,10,13,07,22.90
2012,07,10,13,08,23.10
2012,07,10,13,09,23.20
2012,07,10,13,10,23.40
2012,07,10,13,11,23.50
2012,07,10,13,12,23.60
2012,07,10,13,13,23.60
2012,07,10,13,14,23.60
2012,07,10,13,15,23.60
2012,07,10,13,16,23.60
2012,07,10,13,17,23.70
2012,07,10,13,18,23.60
2012,07,10,13,19,23.50
2012,07,10,13,20,23.40
2012,07,10,13,21,23.30
2012,07,10,13,22,23.20
2012,07,10,13,23,23.10
2012,07,10,13,24,23.00
2012,07,10,13,25,22.90
2012,07,10,13,26,22.80
2012,07,10,13,27,22.80
2012,07,10,13,28,22.80
2012,07,10,13,29,22.90
2012,07,10,13,30,23.10
2012,07,10,13,31,23.10
2012,07,10,13,32,23.20
2012,07,10,13,33,23.30
2012,07,10,13,34,23.30
2012,07,10,13,35,23.30
2012,07,10,13,36,23.20
2012,07,10,13,37,23.20
2012,07,10,13,38,23.00
2012,07,10,13,39,22.90
2012,07,10,13,40,22.80
2012,07,10,13,41,22.80
2012,07,10,13,42,22.80
2012,07,10,13,43,22.80
2012,07,10,13,44,22.70
2012,07,10,13,45,22.60
2012,07,10,13,46,22.60
2012,07,10,13,47,22.60
2012,07,10,13,48,22.70
2012,07,10,13,49,22.80
2012,07,10,13,50,22.70
2012,07,10,13,51,22.70
2012,07,10,13,52,22.50
2012,07,10,13,53,22.50
2012,07,10,13,54,22.50
2012,07,10,13,55,22.50
2012,07,10,13,56,22.60
2012,07,10,13,57,22.60
2012,07,10,13,58,22.70
2012,07,10,13,59,22.70
2012,07,10,14,00,22.70
2012,07,10,14,01,22.80
2012,07,10,14,02,22.80
2012,07,10,14,03,22.90
2012,07,10,14,04,22.90
2012,07,10,14,05,23.00
2012,07,10,14,06,23.00
2012,07,10,14,07,23.10
2012,07,10,14,08,23.20
2012,07,10,14,09,23.20
2012,07,10,14,10,23.30
2012,07,10,14,11,23.30
2012,07,10,14,12,23.30
2012,07,10,14,13,23.30
2012,07,10,14,14,23.20
2012,07,10,14,15,23.10
2012,07,10,14,16,22.90
2012,07,10,14,17,22.80
2012,07,10,14,18,22.60
2012,07,10,14,19,22.40
2012,07,10,14,20,22.40
2012,07,10,14,21,22.40
2012,07,10,14,22,22.50
2012,07,10,14,23,22.70
2012,07,10,14,24,22.90
2012,07,10,14,25,23.20
2012,07,10,14,26,23.40
2012,07,10,14,27,23.60
2012,07,10,14,28,23.70
2012,07,10,14,29,23.70
2012,07,10,14,30,23.60
2012,07,10,14,31,23.60
2012,07,10,14,32,23.50
2012,07,10,14,33,23.60
2012,07,10,14,34,23.50
2012,07,10,14,35,23.40
2012,07,10,14,36,23.40
2012,07,10,14,37,23.40
2012,07,10,14,38,23.50
2012,07,10,14,39,23.50
2012,07,10,14,40,23.60
2012,07,10,14,41,23.60
2012,07,10,14,42,23.50
2012,07,10,14,43,23.40
2012,07,10,14,44,23.20
2012,07,10,14,45,23.10
2012,07,10,14,46,23.10
2012,07,10,14,47,23.00
2012,07,10,14,48,23.00
2012,07,10,14,49,22.90
2012,07,10,14,50,22.90
2012,07,10,14,51,22.90
2012,07,10,14,52,22.80
2012,07,10,14,53,22.70
2012,07,10,14,54,22.60
2012,07,10,14,55,22.60
2012,07,10,14,56,22.60
2012,07,10,14,57,22.60
2012,07,10,14,58,22.60
2012,07,10,14,59,22.60
2012,07,10,15,00,22.60
2012,07,10,15,01,22.50
2012,07,10,15,02,22.40
2012,07,10,15,03,22.30
2012,07,10,15,04,22.20
2012,07,10,15,05,22.20
2012,07,10,15,06,22.30
2012,07,10,15,07,22.20
2012,07,10,15,08,22.20
2012,07,10,15,09,22.20
2012,07,10,15,10,22.20
2012,07,10,15,11,22.20
2012,07,10,15,12,22.20
2012,07,10,15,13,22.20
2012,07,10,15,14,22.20
2012,07,10,15,15,22.20
2012,07,10,15,16,22.30
2012,07,10,15,17,22.30
2012,07,10,15,18,22.10
2012,07,10,15,19,22.00
2012,07,10,15,20,21.90
2012,07,10,15,21,21.90
2012,07,10,15,22,21.90
2012,07,10,15,23,21.90
2012,07,10,15,24,22.00
2012,07,10,15,25,22.20
2012,07,10,15,26,22.30
2012,07,10,15,27,22.30
2012,07,10,15,28,22.40
2012,07,10,15,29,22.40
2012,07,10,15,30,22.40
2012,07,10,15,31,22.40
2012,07,10,15,32,22.40
2012,07,10,15,33,22.40
2012,07,10,15,34,22.40
2012,07,10,15,35,22.40
2012,07,10,15,36,22.40
2012,07,10,15,37,22.40
2012,07,10,15,38,22.40
2012,07,10,15,39,22.30
2012,07,10,15,40,22.30
2012,07,10,15,41,22.30
2012,07,10,15,42,22.20
2012,07,10,15,43,22.20
2012,07,10,15,44,22.20
2012,07,10,15,45,22.20
2012,07,10,15,46,22.20
2012,07,10,15,47,22.20
2012,07,10,15,48,22.10
2012,07,10,15,49,22.10
2012,07,10,15,50,22.00
2012,07,10,15,51,21.90
2012,07,10,15,52,21.90
2012,07,10,15,53,22.00
2012,07,10,15,54,22.00
2012,07,10,15,55,22.00
2012,07,10,15,56,22.00
2012,07,10,15,57,21.90
2012,07,10,15,58,21.90
2012,07,10,15,59,21.90
2012,07,10,16,00,21.80
2012,07,10,16,01,21.80
2012,07,10,16,02,21.80
2012,07,10,16,03,21.90
2012,07,10,16,04,22.00
2012,07,10,16,05,22.00
2012,07,10,16,06,22.00
2012,07,10,16,07,22.00
2012,07,10,16,08,22.10
2012,07,10,16,09,22.10
2012,07,10,16,10,22.20
2012,07,10,16,11,22.20
2012,07,10,16,12,22.20
2012,07,10,16,13,22.20
2012,07,10,16,14,22.30
2012,07,10,16,15,22.30
2012,07,10,16,16,22.30
2012,07,10,16,17,22.20
2012,07,10,16,18,22.20
2012,07,10,16,19,22.10
2012,07,10,16,20,22.10
2012,07,10,16,21,22.10
2012,07,10,16,22,22.10
2012,07,10,16,23,22.10
2012,07,10,16,24,22.10
2012,07,10,16,25,22.10
2012,07,10,16,26,22.10
2012,07,10,16,27,22.10
2012,07,10,16,28,22.20
2012,07,10,16,29,22.20
2012,07,10,16,30,22.20
2012,07,10,16,31,22.20
2012,07,10,16,32,22.20
2012,07,10,16,33,22.30
2012,07,10,16,34,22.30
2012,07,10,16,35,22.20
2012,07,10,16,36,22.20
2012,07,10,16,37,22.20
2012,07,10,16,38,22.20
2012,07,10,16,39,22.30
2012,07,10,16,40,22.30
2012,07,10,16,41,22.30
2012,07,10,16,42,22.30
2012,07,10,16,43,22.30
2012,07,10,16,44,22.30
2012,07,10,16,45,22.20
2012,07,10,16,46,22.30
2012,07,10,16,47,22.30
2012,07,10,16,48,22.40
2012,07,10,16,49,22.50
2012,07,10,16,50,22.60
2012,07,10,16,51,22.70
2012,07,10,16,52,22.80
2012,07,10,16,53,22.90
2012,07,10,16,54,22.90
2012,07,10,16,55,23.00
2012,07,10,16,56,23.10
2012,07,10,16,57,23.10
2012,07,10,16,58,23.20
2012,07,10,16,59,23.20
2012,07,10,17,00,23.10
2012,07,10,17,01,23.00
2012,07,10,17,02,22.90
2012,07,10,17,03,22.80
2012,07,10,17,04,22.80
2012,07,10,17,05,22.80
2012,07,10,17,06,22.80
2012,07,10,17,07,22.90
2012,07,10,17,08,22.90
2012,07,10,17,09,22.90
2012,07,10,17,10,23.00
2012,07,10,17,11,23.00
2012,07,10,17,12,23.10
2012,07,10,17,13,23.20
2012,07,10,17,14,23.30
2012,07,10,17,15,23.40
2012,07,10,17,16,23.40
2012,07,10,17,17,23.40
2012,07,10,17,18,23.40
2012,07,10,17,19,23.40